Home   Weather   Germantown   Past weeks

Flag for USA Past Weather in Germantown, Maryland, USA — Yesterday and Last 2 Weeks

Now
70 °F

Overcast.


Feels Like: 70 °F
Forecast: 67 / 76 °F
Wind: 7 mph from Northeast

Location: Frederick Municipal Airport

Current Time: Apr 30, 2017 at 9:19:43 am

Latest Report: Apr 30, 2017 at 7:50 am


Visibility: 10 mi

Pressure: 30.17 "Hg

Humidity: 88%

Dew Point: 66 °F

Location of GermantownLocation

Past Weather in Germantown — Graph

°F

Germantown Temperature Yesterday

Maximum temperature yesterday: 90 °F (at 4:47 pm)
Minimum temperature yesterday: 68 °F (at 12:15 am)
Average temperature yesterday: 74 °F

High & Low Weather Summary for the Past Weeks

 TemperatureHumidityPressure
High90 °F (Apr 29, 4:47 pm)100% (Apr 17, 9:47 am)30.39 "Hg (Apr 17, 9:47 am)
Low41 °F (Apr 23, 6:15 am)31% (Apr 18, 2:47 pm)29.77 "Hg (Apr 27, 3:47 pm)
Average63 °F87%30.02 "Hg
* Reported Apr 15 7:15 am — Apr 30 7:50 am, Germantown, Weather by CustomWeather, © 2017

Note: Actual official high and low records may vary slightly from our data, if they occured in-between our weather recording intervals... More about our weather records

Advertising

Germantown Weather History for the Previous 24 Hours

Scroll right to see more
 ConditionsComfort  
Time TempWeatherWind HumidityBarometerVisibility
7:50 am
Sun, Apr 30
70 °FOvercast.7 mph88%30.17 "Hg10 mi
6:50 am70 °FOvercast.6 mph100%30.14 "Hg10 mi
6:35 am68 °FOvercast.8 mph100%30.14 "Hg10 mi
6:15 am68 °FOvercast.8 mph100%30.13 "Hg10 mi
5:55 am70 °FOvercast.9 mph94%30.13 "Hg10 mi
5:35 am70 °FOvercast.10 mph94%30.11 "Hg10 mi
5:15 am68 °FOvercast.7 mph100%30.12 "Hg10 mi
4:55 am70 °FOvercast.8 mph94%30.11 "Hg10 mi
4:35 am70 °FOvercast.9 mph94%30.12 "Hg10 mi
4:15 am70 °FPassing clouds.7 mph94%30.12 "Hg10 mi
3:55 am68 °FClear.8 mph100%30.12 "Hg10 mi
3:35 am70 °FClear.8 mph94%30.11 "Hg10 mi
2:55 am70 °FPassing clouds.7 mph100%30.11 "Hg10 mi
2:15 am70 °FPassing clouds.7 mph100%30.10 "Hg10 mi
1:55 am70 °FPassing clouds.6 mph100%30.12 "Hg10 mi
1:35 am70 °FOvercast.5 mph100%30.11 "Hg10 mi
1:15 am68 °FPassing clouds.3 mph100%30.11 "Hg10 mi
12:55 am68 °FClear.No wind100%30.11 "Hg10 mi
9:55 pm
Sat, Apr 29
70 °FClear.No wind100%30.09 "Hg10 mi
9:35 pm72 °FClear.3 mph100%30.10 "Hg10 mi
9:15 pm73 °FClear.3 mph94%30.09 "Hg10 mi
7:56 pm84 °FSunny.3 mph62%30.07 "Hg10 mi
6:47 pm90 °FSunny.No wind46%30.06 "Hg10 mi
5:47 pm90 °FSunny.No wind55%30.07 "Hg10 mi
4:47 pm90 °FSunny.3 mph55%30.06 "Hg10 mi
2:47 pm88 °FSunny.12 mph59%30.09 "Hg10 mi
1:50 pm88 °FSunny.14 mph55%30.08 "Hg10 mi
12:49 pm84 °FSunny.14 mph62%30.08 "Hg10 mi
11:48 am84 °FSunny.10 mph62%30.09 "Hg10 mi
10:48 am75 °FSunny.8 mph78%30.10 "Hg10 mi
9:47 am73 °FPartly sunny.8 mph83%30.13 "Hg10 mi
Weather by CustomWeather, © 2017

See weather overviewHow to use our weather pages